Cadillac, MI

8:22 PM EDT on June 28, 2017 (GMT -0400)
Wexford County

Weather History for KCAD - October, 2013

Change the Weather History Date:

Sunday, October 13, 2013

  Actual Average Record
Temperature  
Mean Temperature 47 °F -  
Max Temperature 56 °F 57 °F 77 °F (2000)
Min Temperature 38 °F 35 °F 21 °F (1993)
Degree Days  
Heating Degree Days 18    
Moisture  
Dew Point 43 °F    
Average Humidity 77    
Maximum Humidity 91    
Minimum Humidity 62    
Precipitation  
Precipitation 0.00 in - - ()
Sea Level Pressure  
Sea Level Pressure 30.26 in    
Wind  
Wind Speed 6 mph (WNW)    
Max Wind Speed 14 mph    
Max Gust Speed 22 mph    
Visibility 10 miles    
Events      
Averages and records for this station are not official NWS values.
T = Trace of Precipitation, MM = Missing Value Source: NWS Daily Summary

Daily Weather History Graph

Daily Weather History Graph

Search for Another Location

Airport or City:

Trip Planner

Search our weather history database for the weather conditions in past years. The results will help you decide how hot, cold, wet, or windy it might be!

Date:

Astronomy

Oct. 13, 2013 Rise Set
Actual Time 7:54 AM EDT 7:00 PM EDT
Civil Twilight 7:25 AM EDT 7:29 PM EDT
Nautical Twilight 6:51 AM EDT 8:03 PM EDT
Astronomical Twilight 6:17 AM EDT 8:36 PM EDT
Moon 4:02 PM EDT (10/13) 1:51 AM EDT (10/13)
Length of Visible Light 12h 04m
Length of Day
11h 06m
Waxing Gibbous, 69% of the Moon is Illuminated
Oct 13
Waxing Gibbous
Oct 18
Full
Oct 26
Last Quarter
Nov 3
New
Nov 10
First Quarter

Hourly Weather History & Observations

Time (EDT) Temp. Windchill Dew Point Humidity Pressure Visibility Wind Dir Wind Speed Gust Speed Precip Events Conditions
12:15 AM 56.8 °F - 52.7 °F 86% 30.08 in 10.0 mi WSW 5.8 mph - N/A   Clear
12:35 AM 56.5 °F - 52.2 °F 85% 30.09 in 10.0 mi West 8.1 mph - N/A   Scattered Clouds
12:54 AM 56.5 °F - 51.3 °F 83% 30.10 in 10.0 mi West 6.9 mph - N/A   Clear
1:15 AM 54.0 °F - 48.9 °F 83% 30.10 in 10.0 mi WSW 4.6 mph - N/A   Clear
1:35 AM 51.8 °F - 46.6 °F 82% 30.11 in 10.0 mi WSW 3.5 mph - N/A   Clear
1:54 AM 51.4 °F - 46.6 °F 83% 30.12 in 10.0 mi WSW 4.6 mph - N/A   Clear
2:15 AM 51.4 °F - 47.1 °F 85% 30.12 in 10.0 mi WSW 4.6 mph - N/A   Clear
2:35 AM 51.4 °F - 46.9 °F 85% 30.13 in 10.0 mi West 5.8 mph - N/A   Clear
2:54 AM 51.4 °F - 46.4 °F 83% 30.13 in 10.0 mi WSW 5.8 mph - N/A   Clear
3:15 AM 51.3 °F - 45.3 °F 80% 30.14 in 10.0 mi West 5.8 mph - N/A   Clear
3:35 AM 49.1 °F - 43.3 °F 81% 30.14 in 10.0 mi WSW 6.9 mph - N/A   Clear
3:54 AM 49.1 °F - 42.8 °F 79% 30.14 in 10.0 mi WSW 8.1 mph - N/A   Clear
4:15 AM 49.1 °F - 42.6 °F 78% 30.14 in 10.0 mi West 5.8 mph - N/A   Clear
4:35 AM 47.3 °F - 41.0 °F 79% 30.15 in 10.0 mi West 5.8 mph - N/A   Clear
4:54 AM 46.0 °F 41.9 °F 40.1 °F 80% 30.16 in 10.0 mi West 8.1 mph - N/A   Clear
5:15 AM 46.2 °F 43.3 °F 39.9 °F 79% 30.16 in 10.0 mi West 5.8 mph - N/A   Clear
5:35 AM 45.1 °F 42.8 °F 39.6 °F 81% 30.17 in 10.0 mi West 4.6 mph - N/A   Clear
5:54 AM 44.6 °F 43.1 °F 39.6 °F 82% 30.18 in 10.0 mi West 3.5 mph - N/A   Clear
6:15 AM 43.9 °F 40.5 °F 39.6 °F 85% 30.19 in 10.0 mi West 5.8 mph - N/A   Clear
6:35 AM 43.9 °F 40.5 °F 39.7 °F 85% 30.20 in 10.0 mi WSW 5.8 mph - N/A   Clear
6:54 AM 42.4 °F 38.8 °F 39.0 °F 88% 30.20 in 10.0 mi SW 5.8 mph - N/A   Clear
7:15 AM 42.3 °F - 38.8 °F 88% 30.22 in 10.0 mi Calm Calm - N/A   Clear
7:35 AM 43.3 °F 41.7 °F 39.0 °F 85% 30.22 in 10.0 mi WSW 3.5 mph - N/A   Mostly Cloudy
7:48 AM 43.9 °F 41.3 °F 40.1 °F 87% 30.22 in 10.0 mi West 4.6 mph - N/A   Mostly Cloudy
8:14 AM 41.9 °F - 38.5 °F 88% 30.23 in 10.0 mi Calm Calm - N/A   Mostly Cloudy
8:35 AM 41.9 °F - 39.0 °F 90% 30.23 in 10.0 mi Calm Calm - N/A   Scattered Clouds
8:55 AM 46.6 °F - 42.4 °F 85% 30.24 in 10.0 mi West 3.5 mph - N/A   Clear
9:14 AM 50.2 °F - 44.4 °F 81% 30.24 in 10.0 mi West 4.6 mph - N/A   Clear
9:35 AM 51.4 °F - 44.6 °F 77% 30.24 in 10.0 mi West 6.9 mph - N/A   Clear
9:55 AM 52.7 °F - 44.6 °F 74% 30.25 in 10.0 mi WNW 8.1 mph - N/A   Clear
10:14 AM 54.0 °F - 45.0 °F 72% 30.25 in 10.0 mi WNW 13.8 mph 18.4 mph N/A   Clear
10:35 AM 54.0 °F - 44.2 °F 70% 30.25 in 10.0 mi West 12.7 mph 18.4 mph N/A   Scattered Clouds
10:55 AM 54.0 °F - 43.2 °F 67% 30.26 in 10.0 mi WNW 13.8 mph 21.9 mph N/A   Mostly Cloudy
11:14 AM 56.5 °F - 44.6 °F 64% 30.27 in 10.0 mi WNW 12.7 mph 18.4 mph N/A   Scattered Clouds
11:35 AM 56.5 °F - 44.8 °F 65% 30.27 in 10.0 mi West 8.1 mph 16.1 mph N/A   Mostly Cloudy
11:55 AM 56.5 °F - 45.5 °F 67% 30.29 in 10.0 mi WNW 8.1 mph - N/A   Overcast
12:14 PM 56.3 °F - 44.4 °F 64% 30.29 in 10.0 mi WNW 8.1 mph - N/A   Overcast
12:35 PM 56.5 °F - 44.6 °F 64% 30.30 in 10.0 mi West 9.2 mph - N/A   Overcast
12:54 PM 56.3 °F - 45.3 °F 67% 30.30 in 10.0 mi NW 8.1 mph - N/A   Overcast
1:15 PM 54.9 °F - 43.9 °F 66% 30.30 in 10.0 mi West 6.9 mph - N/A   Overcast
1:34 PM 56.5 °F - 44.8 °F 65% 30.30 in 10.0 mi West 8.1 mph - N/A   Overcast
1:55 PM 55.9 °F - 45.3 °F 68% 30.30 in 10.0 mi WNW 8.1 mph - N/A   Overcast
2:15 PM 56.5 °F - 45.7 °F 67% 30.30 in 10.0 mi WNW 4.6 mph - N/A   Overcast
2:34 PM 56.5 °F - 44.8 °F 65% 30.30 in 10.0 mi WNW 3.5 mph - N/A   Overcast
2:55 PM 56.5 °F - 43.9 °F 63% 30.30 in 10.0 mi NW 5.8 mph - N/A   Overcast
3:15 PM 56.5 °F - 46.4 °F 69% 30.30 in 10.0 mi NW 6.9 mph - N/A   Overcast
3:34 PM 56.5 °F - 45.3 °F 66% 30.30 in 10.0 mi WNW 6.9 mph - N/A   Overcast
3:55 PM 56.7 °F - 43.9 °F 62% 30.30 in 10.0 mi NNW 8.1 mph - N/A   Overcast
4:15 PM 56.5 °F - 44.6 °F 64% 30.30 in 10.0 mi WNW 6.9 mph - N/A   Overcast
4:34 PM 56.5 °F - 45.1 °F 66% 30.31 in 10.0 mi NW 11.5 mph - N/A   Overcast
4:55 PM 54.5 °F - 44.8 °F 70% 30.31 in 10.0 mi NNW 8.1 mph - N/A   Overcast
5:15 PM 56.5 °F - 46.4 °F 69% 30.31 in 10.0 mi NW 8.1 mph - N/A   Overcast
5:34 PM 56.5 °F - 46.2 °F 68% 30.31 in 10.0 mi North 6.9 mph - N/A   Overcast
5:55 PM 56.5 °F - 45.1 °F 66% 30.31 in 10.0 mi NW 8.1 mph - N/A   Mostly Cloudy
6:15 PM 54.5 °F - 43.3 °F 66% 30.32 in 10.0 mi NNW 8.1 mph - N/A   Overcast
6:34 PM 54.0 °F - 43.7 °F 68% 30.32 in 10.0 mi NNW 5.8 mph - N/A   Overcast
6:55 PM 53.4 °F - 43.3 °F 69% 30.32 in 10.0 mi NW 6.9 mph - N/A   Overcast
7:15 PM 52.5 °F - 43.2 °F 70% 30.33 in 10.0 mi NNW 3.5 mph - N/A   Overcast
7:34 PM 51.4 °F - 43.0 °F 73% 30.33 in 10.0 mi NNW 3.5 mph - N/A   Overcast
7:55 PM 51.4 °F - 43.9 °F 75% 30.34 in 10.0 mi Calm Calm - N/A   Scattered Clouds
8:15 PM 50.7 °F - 43.3 °F 76% 30.34 in 10.0 mi Calm Calm - N/A   Clear
8:35 PM 45.0 °F - 39.7 °F 82% 30.35 in 10.0 mi Calm Calm - N/A   Clear
8:55 PM 42.6 °F - 39.0 °F 87% 30.35 in 10.0 mi Calm Calm - N/A   Clear
9:14 PM 41.9 °F - 38.5 °F 88% 30.36 in 10.0 mi Calm Calm - N/A   Clear
9:35 PM 41.2 °F - 38.5 °F 90% 30.36 in 10.0 mi Calm Calm - N/A   Clear
9:55 PM 40.3 °F - 37.6 °F 90% 30.37 in 10.0 mi Calm Calm - N/A   Clear
10:14 PM 38.7 °F - 36.0 °F 90% 30.37 in 10.0 mi Calm Calm - N/A   Clear
10:35 PM 38.7 °F - 36.3 °F 91% 30.37 in 10.0 mi Calm Calm - N/A   Scattered Clouds
10:55 PM 41.2 °F - 38.7 °F 91% 30.37 in 10.0 mi Calm Calm - N/A   Overcast
11:14 PM 41.2 °F - 38.3 °F 89% 30.37 in 10.0 mi Calm Calm - N/A   Overcast
11:35 PM 42.4 °F - 39.4 °F 89% 30.37 in 10.0 mi Calm Calm - N/A   Overcast
11:55 PM 43.9 °F - 41.0 °F 90% 30.37 in 10.0 mi Calm Calm - N/A   Overcast